| time (UTC) | temp F | wind direction | speed knots | gust knots | rain 1hr in | rain 24hr in | rain mn in | humidity % | barometer mb |
| 20260506002218 | 80 | 19 | 1.7 | 3.5 | 0.19 | 0.03 | 0.03 | 78 | 1004.1 |
| 20260506001714 | 81 | 24 | 4.3 | 7.8 | 0.05 | 0.01 | 0.01 | 73 | 1004.1 |
| 20260506001212 | 82 | 358 | 5.2 | 8.7 | 0.00 | 0.00 | 0.00 | 70 | 1003.7 |
| 20260506000708 | 83 | 0 | 6.1 | 9.6 | 0.00 | 0.00 | 0.00 | 68 | 1003.4 |
| 20260506000206 | 83 | 7 | 9.6 | 14.8 | 0.00 | 0.00 | 0.00 | 68 | 1003.5 |
| 20260505235703 | 83 | 337 | 7.0 | 9.6 | 0.00 | 0.00 | 0.00 | 68 | 1003.1 |
| 20260505235201 | 83 | 12 | 12.2 | 14.8 | 0.00 | 0.00 | 0.00 | 68 | 1002.9 |
| 20260505234657 | 84 | 353 | 12.2 | 13.0 | 0.00 | 0.00 | 0.00 | 66 | 1003.2 |
| 20260505234154 | 84 | 358 | 5.2 | 13.9 | 0.00 | 0.00 | 0.00 | 66 | 1003.5 |
| 20260505233651 | 85 | 33 | 3.5 | 9.6 | 0.00 | 0.00 | 0.00 | 66 | 1003.3 |
| 20260505233149 | 85 | 354 | 1.7 | 10.4 | 0.00 | 0.00 | 0.00 | 65 | 1003.2 |
| 20260505232646 | 85 | 6 | 3.5 | 8.7 | 0.00 | 0.00 | 0.00 | 64 | 1003.1 |
| 20260505232144 | 86 | 346 | 7.8 | 10.4 | 0.00 | 0.00 | 0.00 | 64 | 1003.1 |
| 20260505231640 | 87 | 353 | 7.0 | 10.4 | 0.00 | 0.00 | 0.00 | 62 | 1003.1 |
| 20260505231139 | 87 | 329 | 4.3 | 7.8 | 0.00 | 0.00 | 0.00 | 62 | 1003.3 |
| 20260505230637 | 87 | 339 | 7.8 | 9.6 | 0.00 | 0.00 | 0.00 | 61 | 1003.0 |
| 20260505230133 | 87 | 7 | 6.1 | 10.4 | 0.00 | 0.00 | 0.00 | 61 | 1003.0 |
| 20260505225629 | 87 | 5 | 7.8 | 13.0 | 0.00 | 0.00 | 0.00 | 62 | 1003.0 |
| 20260505225125 | 87 | 351 | 7.8 | 12.2 | 0.00 | 0.00 | 0.00 | 61 | 1003.1 |
| 20260505224622 | 87 | 11 | 6.1 | 8.7 | 0.00 | 0.00 | 0.00 | 61 | 1003.0 |
| 20260505224120 | 87 | 2 | 3.5 | 13.0 | 0.00 | 0.00 | 0.00 | 62 | 1002.8 |
| 20260505223617 | 87 | 351 | 7.0 | 12.2 | 0.00 | 0.00 | 0.00 | 62 | 1002.9 |
| 20260505223113 | 86 | 338 | 11.3 | 12.2 | 0.00 | 0.00 | 0.00 | 62 | 1002.8 |
| 20260505222609 | 86 | 7 | 9.6 | 13.0 | 0.00 | 0.00 | 0.00 | 62 | 1002.8 |
| 20260505222106 | 87 | 14 | 2.6 | 13.0 | 0.00 | 0.00 | 0.00 | 62 | 1003.2 |
| 20260505221603 | 87 | 359 | 7.0 | 12.2 | 0.00 | 0.00 | 0.00 | 61 | 1003.0 |
| 20260505221059 | 87 | 347 | 7.8 | 9.6 | 0.00 | 0.00 | 0.00 | 61 | 1002.8 |
| 20260505220556 | 87 | 19 | 6.1 | 11.3 | 0.00 | 0.00 | 0.00 | 61 | 1002.8 |
| 20260505220054 | 89 | 347 | 5.2 | 11.3 | 0.00 | 0.00 | 0.00 | 59 | 1002.7 |
| 20260505215552 | 88 | 5 | 7.8 | 11.3 | 0.00 | 0.00 | 0.00 | 61 | 1002.8 |
| 20260505215050 | 88 | 4 | 4.3 | 11.3 | 0.00 | 0.00 | 0.00 | 60 | 1002.8 |
| 20260505214548 | 89 | 22 | 5.2 | 9.6 | 0.00 | 0.00 | 0.00 | 59 | 1002.9 |
| 20260505214044 | 89 | 25 | 6.1 | 11.3 | 0.00 | 0.00 | 0.00 | 59 | 1002.9 |
| 20260505213542 | 89 | 4 | 2.6 | 7.0 | 0.00 | 0.00 | 0.00 | 59 | 1002.9 |
| 20260505213038 | 87 | 23 | 7.8 | 9.6 | 0.00 | 0.00 | 0.00 | 60 | 1003.0 |
| 20260505212535 | 87 | 18 | 3.5 | 9.6 | 0.00 | 0.00 | 0.00 | 61 | 1003.3 |
| 20260505212032 | 86 | 17 | 5.2 | 11.3 | 0.00 | 0.00 | 0.00 | 62 | 1003.0 |
| 20260505211529 | 87 | 357 | 7.0 | 9.6 | 0.00 | 0.00 | 0.00 | 61 | 1003.1 |
| 20260505211025 | 87 | 6 | 8.7 | 11.3 | 0.00 | 0.00 | 0.00 | 62 | 1003.0 |
| 20260505210522 | 87 | 26 | 8.7 | 11.3 | 0.00 | 0.00 | 0.00 | 61 | 1003.0 |
| 20260505210019 | 86 | 29 | 7.8 | 11.3 | 0.00 | 0.00 | 0.00 | 62 | 1003.2 |
| 20260505205517 | 85 | 29 | 5.2 | 11.3 | 0.00 | 0.00 | 0.00 | 63 | 1003.2 |
| 20260505205014 | 85 | 13 | 10.4 | 13.9 | 0.00 | 0.00 | 0.00 | 62 | 1003.6 |
| 20260505204512 | 85 | 357 | 6.1 | 13.9 | 0.00 | 0.00 | 0.00 | 63 | 1003.5 |
| 20260505204009 | 85 | 29 | 5.2 | 12.2 | 0.00 | 0.00 | 0.00 | 63 | 1003.4 |
| 20260505203505 | 85 | 1 | 7.0 | 13.9 | 0.00 | 0.00 | 0.00 | 64 | 1003.6 |
| 20260505203002 | 85 | 22 | 8.7 | 9.6 | 0.00 | 0.00 | 0.00 | 64 | 1003.7 |
| 20260505202458 | 85 | 4 | 7.0 | 11.3 | 0.00 | 0.00 | 0.00 | 64 | 1003.8 |
| 20260505201954 | 85 | 13 | 7.8 | 11.3 | 0.00 | 0.00 | 0.00 | 64 | 1003.8 |
| 20260505201451 | 85 | 30 | 3.5 | 10.4 | 0.00 | 0.00 | 0.00 | 64 | 1003.7 |
| 20260505200949 | 84 | 18 | 7.8 | 10.4 | 0.00 | 0.00 | 0.00 | 64 | 1003.8 |
| 20260505200447 | 84 | 9 | 7.0 | 13.0 | 0.00 | 0.00 | 0.00 | 65 | 1003.9 |
| 20260505195942 | 84 | 11 | 7.8 | 10.4 | 0.00 | 0.00 | 0.00 | 65 | 1004.0 |
| 20260505195440 | 84 | 354 | 5.2 | 10.4 | 0.00 | 0.00 | 0.00 | 65 | 1003.8 |
| 20260505194937 | 83 | 19 | 7.0 | 13.9 | 0.00 | 0.00 | 0.00 | 66 | 1003.8 |
| 20260505194434 | 83 | 16 | 11.3 | 11.3 | 0.00 | 0.00 | 0.00 | 66 | 1004.2 |
| 20260505193934 | 83 | 5 | 10.4 | 14.8 | 0.00 | 0.00 | 0.00 | 66 | 1003.7 |
| 20260505193432 | 83 | 37 | 5.2 | 11.3 | 0.00 | 0.00 | 0.00 | 67 | 1003.8 |
| 20260505192930 | 83 | 3 | 10.4 | 17.4 | 0.00 | 0.00 | 0.00 | 67 | 1004.1 |
| 20260505192428 | 82 | 6 | 7.8 | 12.2 | 0.00 | 0.00 | 0.00 | 67 | 1003.7 |
| 20260505191925 | 82 | 4 | 9.6 | 16.5 | 0.00 | 0.00 | 0.00 | 67 | 1003.9 |
| 20260505191424 | 82 | 21 | 12.2 | 14.8 | 0.00 | 0.00 | 0.00 | 67 | 1003.8 |
| 20260505190920 | 82 | 23 | 8.7 | 15.6 | 0.00 | 0.00 | 0.00 | 68 | 1004.0 |
| 20260505190415 | 81 | 31 | 9.6 | 14.8 | 0.00 | 0.00 | 0.00 | 69 | 1004.0 |
| 20260505185911 | 82 | 8 | 10.4 | 11.3 | 0.00 | 0.00 | 0.00 | 69 | 1004.2 |
| 20260505185408 | 81 | 6 | 9.6 | 14.8 | 0.00 | 0.00 | 0.00 | 68 | 1004.4 |
| 20260505184904 | 81 | 17 | 8.7 | 12.2 | 0.00 | 0.00 | 0.00 | 69 | 1004.1 |
| 20260505184401 | 81 | 25 | 5.2 | 13.9 | 0.00 | 0.00 | 0.00 | 69 | 1004.5 |
| 20260505183858 | 81 | 30 | 7.8 | 13.9 | 0.00 | 0.00 | 0.00 | 69 | 1004.3 |
| 20260505183355 | 81 | 13 | 8.7 | 13.0 | 0.00 | 0.00 | 0.00 | 70 | 1004.4 |
| 20260505182852 | 81 | 17 | 7.8 | 13.9 | 0.00 | 0.00 | 0.00 | 68 | 1004.2 |
| 20260505182348 | 81 | 43 | 7.0 | 13.0 | 0.00 | 0.00 | 0.00 | 68 | 1004.3 |
| 20260505181845 | 80 | 24 | 10.4 | 13.9 | 0.00 | 0.00 | 0.00 | 70 | 1004.5 |
| 20260505181343 | 80 | 23 | 11.3 | 14.8 | 0.00 | 0.00 | 0.00 | 70 | 1004.3 |
| 20260505180839 | 81 | 14 | 13.9 | 13.9 | 0.00 | 0.00 | 0.00 | 69 | 1004.3 |
| 20260505180335 | 81 | 9 | 9.6 | 13.0 | 0.00 | 0.00 | 0.00 | 68 | 1004.3 |
| 20260505175832 | 81 | 14 | 9.6 | 12.2 | 0.00 | 0.00 | 0.00 | 69 | 1004.3 |
| 20260505175329 | 81 | 6 | 10.4 | 14.8 | 0.00 | 0.00 | 0.00 | 69 | 1004.6 |
| 20260505174825 | 80 | 22 | 7.8 | 15.6 | 0.00 | 0.00 | 0.00 | 70 | 1004.6 |
| 20260505174323 | 80 | 3 | 7.8 | 13.9 | 0.00 | 0.00 | 0.00 | 70 | 1004.6 |
| 20260505173818 | 80 | 6 | 9.6 | 14.8 | 0.00 | 0.00 | 0.00 | 70 | 1004.5 |
| 20260505173316 | 80 | 0 | 10.4 | 13.9 | 0.00 | 0.00 | 0.00 | 70 | 1004.5 |
| 20260505172813 | 79 | 28 | 7.8 | 13.9 | 0.00 | 0.00 | 0.00 | 70 | 1004.4 |
| 20260505172310 | 79 | 21 | 12.2 | 16.5 | 0.00 | 0.00 | 0.00 | 72 | 1004.4 |
| 20260505171804 | 78 | 13 | 7.8 | 13.0 | 0.00 | 0.00 | 0.00 | 73 | 1004.4 |
| 20260505171301 | 79 | 31 | 5.2 | 16.5 | 0.00 | 0.00 | 0.00 | 72 | 1004.8 |
| 20260505170758 | 79 | 353 | 9.6 | 15.6 | 0.00 | 0.00 | 0.00 | 72 | 1004.5 |
| 20260505170255 | 78 | 11 | 13.0 | 14.8 | 0.00 | 0.00 | 0.00 | 73 | 1004.9 |
| 20260505165755 | 78 | 16 | 8.7 | 14.8 | 0.00 | 0.00 | 0.00 | 73 | 1004.6 |
| 20260505165252 | 78 | 6 | 15.6 | 19.1 | 0.00 | 0.00 | 0.00 | 72 | 1004.6 |
| 20260505164748 | 78 | 17 | 14.8 | 15.6 | 0.00 | 0.00 | 0.00 | 73 | 1004.6 |
| 20260505164245 | 78 | 22 | 9.6 | 16.5 | 0.00 | 0.00 | 0.00 | 72 | 1004.6 |
| 20260505163743 | 78 | 0 | 13.9 | 20.0 | 0.00 | 0.00 | 0.00 | 72 | 1004.7 |
| 20260505163242 | 78 | 30 | 8.7 | 19.1 | 0.00 | 0.00 | 0.00 | 72 | 1004.5 |
| 20260505162739 | 78 | 12 | 10.4 | 14.8 | 0.00 | 0.00 | 0.00 | 73 | 1004.5 |
| 20260505162235 | 78 | 39 | 7.0 | 16.5 | 0.00 | 0.00 | 0.00 | 74 | 1004.5 |
| 20260505161732 | 78 | 30 | 7.0 | 14.8 | 0.00 | 0.00 | 0.00 | 73 | 1004.3 |
| 20260505161230 | 77 | 7 | 8.7 | 19.1 | 0.00 | 0.00 | 0.00 | 73 | 1004.2 |
| 20260505160727 | 77 | 36 | 9.6 | 19.1 | 0.00 | 0.00 | 0.00 | 74 | 1004.1 |
| 20260505160225 | 76 | 20 | 9.6 | 17.4 | 0.00 | 0.00 | 0.00 | 75 | 1004.2 |
| 20260505153204 | 76 | 32 | 7.8 | 16.5 | 0.00 | 0.00 | 0.00 | 76 | 1004.6 |
| 20260505152700 | 75 | 7 | 5.2 | 15.6 | 0.00 | 0.00 | 0.00 | 77 | 1004.5 |
| 20260505152156 | 75 | 28 | 18.2 | 20.0 | 0.00 | 0.00 | 0.00 | 77 | 1004.2 |
| 20260505151652 | 75 | 35 | 13.9 | 17.4 | 0.00 | 0.00 | 0.00 | 78 | 1004.4 |
| 20260505151149 | 75 | 9 | 13.9 | 16.5 | 0.00 | 0.00 | 0.00 | 78 | 1004.4 |
| 20260505150645 | 75 | 13 | 7.8 | 20.0 | 0.00 | 0.00 | 0.00 | 77 | 1004.6 |
| 20260505150143 | 75 | 20 | 7.0 | 14.8 | 0.00 | 0.00 | 0.00 | 78 | 1004.3 |
| 20260505140616 | 74 | 39 | 8.7 | 20.0 | 0.00 | 0.00 | 0.00 | 79 | 1004.1 |
| 20260505140113 | 73 | 9 | 7.8 | 14.8 | 0.00 | 0.00 | 0.00 | 80 | 1004.2 |
| 20260505125030 | 73 | 8 | 11.3 | 17.4 | 0.00 | 0.00 | 0.00 | 81 | 1004.2 |
| 20260505124526 | 72 | 17 | 9.6 | 17.4 | 0.00 | 0.00 | 0.00 | 81 | 1003.7 |
| 20260505124023 | 72 | 2 | 8.7 | 18.2 | 0.00 | 0.00 | 0.00 | 81 | 1003.8 |
| 20260505123519 | 72 | 5 | 4.3 | 11.3 | 0.00 | 0.00 | 0.00 | 81 | 1003.8 |
| 20260505123015 | 72 | 5 | 7.0 | 12.2 | 0.00 | 0.00 | 0.00 | 81 | 1003.6 |
| 20260505122513 | 72 | 39 | 10.4 | 16.5 | 0.00 | 0.00 | 0.00 | 81 | 1003.5 |
| 20260505122009 | 72 | 7 | 7.8 | 14.8 | 0.00 | 0.00 | 0.00 | 81 | 1003.7 |
| 20260505121506 | 72 | 20 | 10.4 | 19.1 | 0.00 | 0.00 | 0.00 | 81 | 1003.8 |
| 20260505121002 | 72 | 357 | 9.6 | 17.4 | 0.00 | 0.00 | 0.00 | 81 | 1003.4 |
| 20260505120459 | 72 | 351 | 7.0 | 11.3 | 0.00 | 0.00 | 0.00 | 81 | 1003.6 |
| 20260505115958 | 72 | 10 | 7.8 | 18.2 | 0.00 | 0.00 | 0.00 | 81 | 1003.6 |
| 20260505115454 | 72 | 355 | 7.8 | 12.2 | 0.00 | 0.00 | 0.00 | 81 | 1003.4 |
| 20260505114953 | 72 | 344 | 16.5 | 18.2 | 0.00 | 0.00 | 0.00 | 81 | 1003.4 |
| 20260505114448 | 72 | 13 | 12.2 | 13.0 | 0.00 | 0.00 | 0.00 | 81 | 1003.5 |
| 20260505113945 | 72 | 19 | 5.2 | 11.3 | 0.00 | 0.00 | 0.00 | 81 | 1003.4 |
| 20260505113441 | 72 | 348 | 8.7 | 14.8 | 0.00 | 0.00 | 0.00 | 81 | 1003.2 |
| 20260505112937 | 72 | 13 | 7.0 | 14.8 | 0.00 | 0.00 | 0.00 | 81 | 1003.3 |
| 20260505112435 | 72 | 9 | 7.0 | 13.9 | 0.00 | 0.00 | 0.00 | 81 | 1003.5 |
| 20260505111931 | 72 | 336 | 11.3 | 13.0 | 0.00 | 0.00 | 0.00 | 81 | 1003.6 |
| 20260505111426 | 72 | 352 | 5.2 | 10.4 | 0.00 | 0.00 | 0.00 | 81 | 1003.4 |
| 20260505110922 | 72 | 4 | 6.1 | 12.2 | 0.00 | 0.00 | 0.00 | 81 | 1003.5 |
| 20260505110419 | 72 | 37 | 11.3 | 12.2 | 0.00 | 0.00 | 0.00 | 81 | 1003.4 |
| 20260505101850 | 72 | 358 | 12.2 | 16.5 | 0.00 | 0.00 | 0.00 | 81 | 1003.6 |
| 20260505101345 | 72 | 1 | 5.2 | 14.8 | 0.00 | 0.00 | 0.00 | 81 | 1003.6 |
| 20260505100841 | 72 | 350 | 8.7 | 12.2 | 0.00 | 0.00 | 0.00 | 81 | 1003.6 |
| 20260505100338 | 72 | 20 | 13.0 | 15.6 | 0.00 | 0.00 | 0.00 | 81 | 1003.7 |
| 20260505095833 | 72 | 2 | 9.6 | 13.0 | 0.00 | 0.00 | 0.00 | 81 | 1003.7 |
| 20260505095332 | 72 | 356 | 8.7 | 12.2 | 0.00 | 0.00 | 0.00 | 81 | 1003.9 |
| 20260505094827 | 72 | 358 | 9.6 | 16.5 | 0.00 | 0.00 | 0.00 | 81 | 1003.8 |
| 20260505094324 | 72 | 356 | 11.3 | 14.8 | 0.00 | 0.00 | 0.00 | 81 | 1003.9 |
| 20260505093819 | 72 | 10 | 8.7 | 11.3 | 0.00 | 0.00 | 0.00 | 81 | 1003.8 |
| 20260505093318 | 72 | 1 | 10.4 | 14.8 | 0.00 | 0.00 | 0.00 | 81 | 1004.0 |
| 20260505092814 | 72 | 337 | 6.1 | 17.4 | 0.00 | 0.00 | 0.00 | 81 | 1003.9 |
| 20260505092313 | 72 | 1 | 8.7 | 10.4 | 0.00 | 0.00 | 0.00 | 81 | 1003.9 |
| 20260505091810 | 72 | 26 | 11.3 | 19.1 | 0.00 | 0.00 | 0.00 | 81 | 1004.0 |
| 20260505091308 | 72 | 3 | 10.4 | 15.6 | 0.00 | 0.00 | 0.00 | 81 | 1003.8 |
| 20260505090805 | 72 | 31 | 7.8 | 16.5 | 0.00 | 0.00 | 0.00 | 81 | 1003.9 |
| 20260505090303 | 72 | 16 | 8.7 | 13.9 | 0.00 | 0.00 | 0.00 | 81 | 1003.7 |
| 20260505085800 | 72 | 29 | 11.3 | 11.3 | 0.00 | 0.00 | 0.00 | 81 | 1003.8 |
| 20260505085258 | 72 | 356 | 7.0 | 13.9 | 0.00 | 0.00 | 0.00 | 81 | 1003.7 |
| 20260505084756 | 72 | 353 | 9.6 | 15.6 | 0.00 | 0.00 | 0.00 | 81 | 1003.8 |
| 20260505084255 | 72 | 2 | 7.0 | 13.9 | 0.00 | 0.00 | 0.00 | 81 | 1003.8 |
| 20260505083751 | 71 | 25 | 11.3 | 14.8 | 0.00 | 0.00 | 0.00 | 81 | 1003.8 |
| 20260505083248 | 71 | 348 | 7.8 | 14.8 | 0.00 | 0.00 | 0.00 | 81 | 1003.8 |
| 20260505082744 | 71 | 52 | 6.1 | 13.9 | 0.00 | 0.00 | 0.00 | 81 | 1003.9 |
| 20260505082241 | 71 | 350 | 10.4 | 18.2 | 0.00 | 0.00 | 0.00 | 81 | 1004.0 |
| 20260505081737 | 71 | 3 | 7.0 | 14.8 | 0.00 | 0.00 | 0.00 | 81 | 1003.8 |
| 20260505081235 | 71 | 358 | 9.6 | 14.8 | 0.00 | 0.00 | 0.00 | 81 | 1003.9 |
| 20260505080731 | 71 | 2 | 8.7 | 18.2 | 0.00 | 0.00 | 0.00 | 81 | 1003.9 |
| 20260505080227 | 71 | 3 | 8.7 | 10.4 | 0.00 | 0.00 | 0.00 | 81 | 1004.0 |
| 20260505075723 | 71 | 13 | 7.0 | 14.8 | 0.00 | 0.00 | 0.00 | 81 | 1004.1 |
| 20260505075220 | 71 | 13 | 8.7 | 13.0 | 0.00 | 0.00 | 0.00 | 81 | 1004.3 |
| 20260505074717 | 71 | 356 | 7.0 | 13.9 | 0.00 | 0.00 | 0.00 | 81 | 1004.3 |
| 20260505074214 | 71 | 7 | 10.4 | 18.2 | 0.00 | 0.00 | 0.00 | 80 | 1004.4 |
| 20260505073712 | 71 | 25 | 11.3 | 17.4 | 0.00 | 0.00 | 0.00 | 80 | 1004.5 |
| 20260505073210 | 72 | 1 | 5.2 | 13.0 | 0.00 | 0.00 | 0.00 | 80 | 1004.5 |
| 20260505072705 | 72 | 6 | 10.4 | 16.5 | 0.00 | 0.00 | 0.00 | 80 | 1004.4 |
| 20260505072202 | 72 | 0 | 7.8 | 13.0 | 0.00 | 0.00 | 0.00 | 80 | 1004.6 |
| 20260505071657 | 72 | 0 | 8.7 | 18.2 | 0.00 | 0.00 | 0.00 | 79 | 1004.6 |
| 20260505071155 | 72 | 26 | 6.1 | 13.9 | 0.00 | 0.00 | 0.00 | 79 | 1004.6 |
| 20260505070653 | 72 | 344 | 8.7 | 13.9 | 0.00 | 0.00 | 0.00 | 79 | 1004.8 |
| 20260505070148 | 72 | 31 | 5.2 | 13.0 | 0.00 | 0.00 | 0.00 | 79 | 1004.8 |
| 20260505065645 | 72 | 356 | 7.0 | 14.8 | 0.00 | 0.00 | 0.00 | 79 | 1004.7 |
| 20260505065142 | 72 | 355 | 9.6 | 14.8 | 0.00 | 0.00 | 0.00 | 78 | 1004.9 |
| 20260505064638 | 72 | 342 | 7.8 | 17.4 | 0.00 | 0.00 | 0.00 | 78 | 1004.8 |
| 20260505064136 | 72 | 14 | 5.2 | 13.9 | 0.00 | 0.00 | 0.00 | 78 | 1004.9 |
| 20260505063634 | 73 | 14 | 7.8 | 19.1 | 0.00 | 0.00 | 0.00 | 78 | 1004.9 |
| 20260505063130 | 72 | 11 | 11.3 | 13.0 | 0.00 | 0.00 | 0.00 | 77 | 1004.8 |
| 20260505062626 | 72 | 339 | 13.0 | 17.4 | 0.00 | 0.00 | 0.00 | 77 | 1005.2 |
| 20260505062124 | 73 | 351 | 12.2 | 20.0 | 0.00 | 0.00 | 0.00 | 77 | 1005.0 |
| 20260505061621 | 73 | 352 | 7.0 | 13.9 | 0.00 | 0.00 | 0.00 | 77 | 1005.1 |
| 20260505061119 | 73 | 356 | 8.7 | 13.0 | 0.00 | 0.00 | 0.00 | 76 | 1005.2 |
| 20260505060616 | 73 | 0 | 10.4 | 14.8 | 0.00 | 0.00 | 0.00 | 76 | 1005.2 |
| 20260505060113 | 73 | 346 | 10.4 | 15.6 | 0.00 | 0.00 | 0.00 | 76 | 1005.3 |
| 20260505055608 | 73 | 332 | 7.8 | 14.8 | 0.00 | 0.00 | 0.00 | 75 | 1005.1 |
| 20260505055105 | 73 | 9 | 9.6 | 15.6 | 0.00 | 0.00 | 0.00 | 75 | 1005.1 |
| 20260505054602 | 73 | 346 | 12.2 | 15.6 | 0.00 | 0.00 | 0.00 | 75 | 1005.2 |
| 20260505054100 | 73 | 343 | 7.8 | 18.2 | 0.00 | 0.00 | 0.00 | 75 | 1005.4 |
| 20260505053557 | 73 | 16 | 14.8 | 14.8 | 0.00 | 0.00 | 0.00 | 75 | 1005.3 |
| 20260505053053 | 73 | 343 | 7.0 | 14.8 | 0.00 | 0.00 | 0.00 | 74 | 1005.3 |
| 20260505052550 | 73 | 354 | 5.2 | 12.2 | 0.00 | 0.00 | 0.00 | 74 | 1005.4 |
| 20260505052048 | 73 | 356 | 11.3 | 16.5 | 0.00 | 0.00 | 0.00 | 74 | 1005.6 |
| 20260505051545 | 73 | 28 | 13.0 | 17.4 | 0.00 | 0.00 | 0.00 | 73 | 1005.6 |
| 20260505051043 | 73 | 19 | 11.3 | 14.8 | 0.00 | 0.00 | 0.00 | 73 | 1005.5 |
| 20260505050541 | 73 | 351 | 6.1 | 16.5 | 0.00 | 0.00 | 0.00 | 73 | 1005.6 |
| 20260505041508 | 74 | 338 | 11.3 | 12.2 | 0.00 | 0.00 | 0.00 | 69 | 1005.7 |
| 20260505041006 | 74 | 356 | 5.2 | 10.4 | 0.00 | 0.00 | 0.00 | 69 | 1005.7 |
| 20260505040503 | 74 | 341 | 10.4 | 14.8 | 0.00 | 0.00 | 0.00 | 69 | 1005.8 |
| 20260505040000 | 74 | 334 | 7.0 | 11.3 | 0.00 | 0.00 | 0.00 | 69 | 1005.6 |
| 20260505035455 | 74 | 344 | 6.1 | 13.9 | 0.00 | 0.00 | 0.00 | 68 | 1005.8 |
| 20260505034953 | 74 | 346 | 7.8 | 13.9 | 0.00 | 0.00 | 0.00 | 68 | 1005.7 |
| 20260505034449 | 75 | 343 | 6.1 | 13.0 | 0.00 | 0.00 | 0.00 | 68 | 1005.5 |
| 20260505033947 | 75 | 346 | 9.6 | 13.9 | 0.00 | 0.00 | 0.00 | 68 | 1005.6 |
| 20260505033443 | 75 | 331 | 5.2 | 15.6 | 0.00 | 0.00 | 0.00 | 67 | 1005.6 |
| 20260505032941 | 75 | 14 | 12.2 | 14.8 | 0.00 | 0.00 | 0.00 | 67 | 1005.6 |
| 20260505032439 | 75 | 2 | 8.7 | 11.3 | 0.00 | 0.00 | 0.00 | 67 | 1005.7 |
| 20260505031935 | 75 | 29 | 10.4 | 15.6 | 0.00 | 0.00 | 0.00 | 67 | 1005.5 |
| 20260505031432 | 75 | 351 | 6.1 | 13.0 | 0.00 | 0.00 | 0.00 | 67 | 1005.8 |
| 20260505030929 | 75 | 9 | 7.0 | 12.2 | 0.00 | 0.00 | 0.00 | 67 | 1005.5 |
| 20260505030424 | 75 | 333 | 2.6 | 8.7 | 0.00 | 0.00 | 0.00 | 66 | 1005.7 |
| 20260505025920 | 75 | 336 | 8.7 | 13.0 | 0.00 | 0.00 | 0.00 | 66 | 1005.8 |
| 20260505025418 | 75 | 358 | 7.8 | 13.0 | 0.00 | 0.00 | 0.00 | 66 | 1005.7 |
| 20260505024917 | 75 | 4 | 6.1 | 16.5 | 0.00 | 0.00 | 0.00 | 66 | 1005.6 |
| 20260505024414 | 75 | 348 | 7.8 | 10.4 | 0.00 | 0.00 | 0.00 | 66 | 1005.6 |
| 20260505023910 | 75 | 348 | 8.7 | 11.3 | 0.00 | 0.00 | 0.00 | 66 | 1005.5 |
| 20260505023408 | 75 | 338 | 6.1 | 13.9 | 0.00 | 0.00 | 0.00 | 65 | 1005.4 |
| 20260505022905 | 75 | 345 | 5.2 | 8.7 | 0.00 | 0.00 | 0.00 | 65 | 1005.3 |
| 20260505022402 | 76 | 13 | 7.0 | 10.4 | 0.00 | 0.00 | 0.00 | 65 | 1005.8 |
| 20260505021859 | 76 | 351 | 5.2 | 13.9 | 0.00 | 0.00 | 0.00 | 64 | 1005.6 |
| 20260505021355 | 76 | 13 | 3.5 | 13.9 | 0.00 | 0.00 | 0.00 | 64 | 1005.5 |
| 20260505020851 | 76 | 343 | 9.6 | 9.6 | 0.00 | 0.00 | 0.00 | 64 | 1005.5 |
| 20260505020347 | 76 | 7 | 4.3 | 13.0 | 0.00 | 0.00 | 0.00 | 64 | 1005.5 |
| 20260505015844 | 76 | 353 | 7.0 | 12.2 | 0.00 | 0.00 | 0.00 | 63 | 1005.4 |
| 20260505015341 | 76 | 335 | 10.4 | 15.6 | 0.00 | 0.00 | 0.00 | 63 | 1005.5 |
| 20260505014838 | 76 | 52 | 7.8 | 13.0 | 0.00 | 0.00 | 0.00 | 63 | 1005.5 |
| 20260505014335 | 76 | 326 | 4.3 | 10.4 | 0.00 | 0.00 | 0.00 | 63 | 1005.5 |
| 20260505013832 | 76 | 9 | 3.5 | 10.4 | 0.00 | 0.00 | 0.00 | 63 | 1005.4 |
| 20260505013329 | 77 | 4 | 3.5 | 11.3 | 0.00 | 0.00 | 0.00 | 62 | 1005.6 |
| 20260505012828 | 77 | 40 | 9.6 | 15.6 | 0.00 | 0.00 | 0.00 | 62 | 1005.5 |
| 20260505012325 | 77 | 5 | 6.1 | 13.0 | 0.00 | 0.00 | 0.00 | 62 | 1005.5 |
| 20260505011820 | 77 | 4 | 8.7 | 11.3 | 0.00 | 0.00 | 0.00 | 62 | 1005.5 |
| 20260505011318 | 77 | 348 | 12.2 | 14.8 | 0.00 | 0.00 | 0.00 | 62 | 1005.4 |
| 20260505010814 | 77 | 357 | 14.8 | 15.6 | 0.00 | 0.00 | 0.00 | 61 | 1005.4 |
| 20260505010310 | 77 | 5 | 5.2 | 13.0 | 0.00 | 0.00 | 0.00 | 61 | 1005.3 |
| 20260505005806 | 77 | 6 | 8.7 | 14.8 | 0.00 | 0.00 | 0.00 | 61 | 1005.5 |
| 20260505005304 | 78 | 4 | 5.2 | 11.3 | 0.00 | 0.00 | 0.00 | 61 | 1005.6 |
| 20260505004801 | 78 | 341 | 8.7 | 13.0 | 0.00 | 0.00 | 0.00 | 60 | 1005.4 |
| 20260505004256 | 78 | 4 | 6.1 | 14.8 | 0.00 | 0.00 | 0.00 | 60 | 1005.6 |
| 20260505003754 | 78 | 21 | 7.8 | 15.6 | 0.00 | 0.00 | 0.00 | 59 | 1005.4 |
| 20260505003251 | 78 | 24 | 14.8 | 15.6 | 0.00 | 0.00 | 0.00 | 59 | 1005.5 |
| 20260505002748 | 78 | 4 | 10.4 | 15.6 | 0.00 | 0.00 | 0.00 | 58 | 1005.5 |